Milton, FL

7:39 AM CST on February 28, 2017 (GMT -0600)
Whiting Field Naval Air Station (North)

Weather History for KNSE - February, 2014

Change the Weather History Date:

Monday, February 10, 2014

  Actual Average Record
Temperature  
Mean Temperature 55 °F -  
Max Temperature 68 °F 62 °F 79 °F (1999)
Min Temperature 42 °F 44 °F 25 °F (2016)
Degree Days  
Heating Degree Days 10    
Growing Degree Days 5 (Base 50)    
Moisture  
Dew Point 49 °F    
Average Humidity 88    
Maximum Humidity 97    
Minimum Humidity 61    
Precipitation  
Precipitation 0.16 in - - ()
Sea Level Pressure  
Sea Level Pressure 30.07 in    
Wind  
Wind Speed 2 mph (West)    
Max Wind Speed 14 mph    
Max Gust Speed -    
Visibility 3 miles    
Events Fog , Rain    
Averages and records for this station are not official NWS values.
T = Trace of Precipitation, MM = Missing Value Source: NWS Daily Summary

Daily Weather History Graph

Daily Weather History Graph

Search for Another Location

Airport or City:

Trip Planner

Search our weather history database for the weather conditions in past years. The results will help you decide how hot, cold, wet, or windy it might be!

Date:

Astronomy

Feb. 10, 2014 Rise Set
Actual Time 6:33 AM CST 5:31 PM CST
Civil Twilight 6:08 AM CST 5:56 PM CST
Nautical Twilight 5:39 AM CST 6:25 PM CST
Astronomical Twilight 5:11 AM CST 6:53 PM CST
Moon 2:07 PM CST (2/10) 3:19 AM CST (2/10)
Length of Visible Light 11h 48m
Length of Day
10h 58m
Waxing Gibbous, 85% of the Moon is Illuminated
Feb 10
Waxing Gibbous
Feb 14
Full
Feb 22
Last Quarter
Mar 1
New
Mar 8
First Quarter

Hourly Weather History & Observations

Time (CST) Temp. Dew Point Humidity Pressure Visibility Wind Dir Wind Speed Gust Speed Precip Events Conditions
12:40 AM 44.1 °F 42.1 °F 93% 30.10 in 0.2 mi Calm Calm - N/A Fog Fog
12:52 AM 42.8 °F 41.0 °F 93% 30.10 in 0.8 mi Calm Calm - N/A   Clear
12:56 AM 43.0 °F 41.0 °F 93% 30.06 in 0.5 mi Calm Calm - N/A Fog Fog
1:04 AM 43.0 °F 41.0 °F 93% 30.09 in 0.2 mi Calm Calm - N/A Fog Fog
1:12 AM 43.0 °F 39.9 °F 89% 30.09 in 0.5 mi Calm Calm - N/A Fog Fog
1:22 AM 42.1 °F 39.9 °F 92% 30.08 in 0.2 mi Calm Calm - N/A Fog Fog
1:31 AM 44.1 °F 41.0 °F 89% 30.08 in 1.2 mi Calm Calm - N/A   Partly Cloudy
1:34 AM 44.1 °F 41.0 °F 89% 30.08 in 3.0 mi Calm Calm - N/A   Scattered Clouds
1:39 AM 44.1 °F 41.0 °F 89% 30.08 in 1.5 mi Calm Calm - N/A   Mostly Cloudy
1:42 AM 43.0 °F 41.0 °F 93% 30.08 in 0.2 mi Calm Calm - N/A Fog Fog
1:56 AM 44.1 °F 41.0 °F 89% 30.04 in 0.2 mi Calm Calm - N/A Fog Fog
2:56 AM 43.0 °F 41.0 °F 93% 30.04 in 0.5 mi Calm Calm - N/A Fog Fog
3:28 AM 43.0 °F 41.0 °F 93% 30.08 in 1.2 mi Calm Calm - N/A   Scattered Clouds
3:43 AM 42.1 °F 39.9 °F 92% 30.08 in 1.5 mi Calm Calm - N/A   Mostly Cloudy
3:52 AM 42.8 °F 39.2 °F 87% 30.08 in 0.2 mi Calm Calm - N/A Fog Fog
3:56 AM 43.0 °F 41.0 °F 93% 30.05 in 0.2 mi Calm Calm - N/A Fog Fog
4:56 AM 43.0 °F 41.0 °F 93% 30.06 in 0.2 mi Calm Calm - N/A Fog Fog
5:56 AM 42.1 °F 39.9 °F 92% 30.06 in 0.2 mi Calm Calm - N/A Fog Fog
6:56 AM 43.0 °F 41.0 °F 93% 30.07 in 0.2 mi Calm Calm - N/A Fog Fog
7:39 AM 48.9 °F 46.9 °F 93% 30.12 in 0.8 mi Calm Calm - N/A   Mostly Cloudy
7:56 AM 51.1 °F 48.9 °F 92% 30.08 in 3.0 mi Calm Calm - N/A   Mostly Cloudy
8:56 AM 59.0 °F 54.0 °F 83% 30.10 in 8.0 mi SW 4.6 mph - N/A   Scattered Clouds
9:31 AM 63.0 °F 55.0 °F 75% 30.14 in 10.0 mi West 8.1 mph - N/A   Mostly Cloudy
9:56 AM 64.9 °F 55.0 °F 70% 30.10 in 10.0 mi WNW 4.6 mph - N/A   Mostly Cloudy
10:56 AM 68.0 °F 55.0 °F 63% 30.09 in 10.0 mi WSW 8.1 mph - N/A   Mostly Cloudy
11:56 AM 68.0 °F 54.0 °F 61% 30.06 in 10.0 mi West 8.1 mph - N/A   Mostly Cloudy
12:56 PM 68.0 °F 54.0 °F 61% 30.04 in 10.0 mi NW 6.9 mph - N/A   Mostly Cloudy
1:56 PM 66.9 °F 55.0 °F 66% 30.02 in 10.0 mi SSW 9.2 mph - N/A   Mostly Cloudy
2:56 PM 64.9 °F 55.0 °F 70% 30.01 in 10.0 mi South 13.8 mph - N/A   Mostly Cloudy
3:15 PM 64.0 °F 55.9 °F 75% 30.04 in 10.0 mi South 11.5 mph - 0.00 in Rain Light Rain
3:56 PM 62.1 °F 57.9 °F 86% 30.01 in 5.0 mi SSW 4.6 mph - 0.00 in Rain Light Rain
4:46 PM 62.1 °F 57.0 °F 84% 30.05 in 2.5 mi SW 3.5 mph - 0.00 in Rain Light Rain
4:53 PM 60.8 °F 57.2 °F 88% 30.05 in 1.5 mi SW 3.5 mph - 0.00 in Rain Light Rain
4:56 PM 61.0 °F 57.9 °F 90% 30.02 in 1.5 mi SW 3.5 mph - 0.00 in Rain Light Rain
5:18 PM 61.0 °F 57.9 °F 90% 30.06 in 3.0 mi SSW 4.6 mph - 0.01 in Rain Light Rain
5:56 PM 60.1 °F 59.0 °F 96% 30.03 in 3.0 mi Calm Calm - 0.03 in Rain Rain
6:27 PM 60.1 °F 57.9 °F 93% 30.07 in 2.5 mi Calm Calm - 0.03 in Rain Light Rain
6:56 PM 60.1 °F 57.9 °F 93% 30.04 in 2.0 mi North 6.9 mph - 0.13 in Rain Heavy Rain
7:32 PM 57.9 °F 57.0 °F 97% 30.08 in 4.0 mi North 4.6 mph - 0.00 in Rain Light Rain
7:56 PM 57.9 °F 57.0 °F 97% 30.06 in 3.0 mi Variable 4.6 mph - 0.00 in Rain Light Rain
8:02 PM 57.0 °F 55.9 °F 96% 30.09 in 1.8 mi North 3.5 mph - 0.00 in Rain Rain
8:56 PM 55.9 °F 55.0 °F 97% 30.06 in 1.8 mi NNW 4.6 mph - 0.00 in Rain Rain
9:24 PM 55.0 °F 54.0 °F 96% 30.09 in 7.0 mi North 5.8 mph - N/A   Overcast
9:56 PM 55.0 °F 54.0 °F 96% 30.05 in 5.0 mi NNE 5.8 mph - N/A   Overcast
10:56 PM 53.1 °F 52.0 °F 96% 30.05 in 5.0 mi Variable 3.5 mph - N/A   Overcast
11:07 PM 52.0 °F - N/A% 30.08 in 5.0 mi Variable 3.5 mph - N/A   Haze
11:56 PM 52.0 °F - N/A% 30.04 in 4.0 mi Variable 3.5 mph - N/A   Haze